| time (UTC) | temp F | wind direction | speed knots | gust knots | rain 1hr in | rain 24hr in | rain mn in | humidity % | barometer mb |
| 20260509090057 | 44 | 216 | 0.9 | 2.6 | 0.00 | 0.09 | 0.00 | 78 | 1008.5 |
| 20260509084555 | 44 | 217 | 2.6 | 4.3 | 0.00 | 0.09 | 0.00 | 78 | 1008.9 |
| 20260509083054 | 43 | 217 | 0.9 | 3.5 | 0.00 | 0.09 | 0.00 | 78 | 1009.0 |
| 20260509081553 | 43 | 208 | 2.6 | 4.3 | 0.00 | 0.09 | 0.00 | 79 | 1009.2 |
| 20260509080048 | 43 | 219 | 1.7 | 3.5 | 0.00 | 0.09 | 0.00 | 79 | 1009.2 |
| 20260509074548 | 43 | 219 | 1.7 | 4.3 | 0.00 | 0.09 | 0.00 | 78 | 1009.5 |
| 20260509073047 | 43 | 219 | 0.9 | 2.6 | 0.00 | 0.09 | 0.00 | 78 | 1009.4 |
| 20260509071548 | 43 | 218 | 2.6 | 4.3 | 0.00 | 0.09 | 0.00 | 78 | 1009.4 |
| 20260509070043 | 43 | 211 | 1.7 | 4.3 | 0.00 | 0.09 | 0.00 | 78 | 1009.6 |
| 20260509064547 | 43 | 210 | 1.7 | 3.5 | 0.00 | 0.09 | 0.00 | 79 | 1009.9 |
| 20260509063038 | 42 | 210 | 1.7 | 3.5 | 0.00 | 0.09 | 0.00 | 79 | 1010.2 |
| 20260509061538 | 42 | 209 | 0.9 | 4.3 | 0.00 | 0.09 | 0.00 | 78 | 1010.3 |
| 20260509060037 | 43 | 217 | 3.5 | 7.0 | 0.00 | 0.09 | 0.00 | 76 | 1010.5 |
| 20260509054533 | 43 | 185 | 0.0 | 1.7 | 0.00 | 0.09 | 0.00 | 74 | 1010.5 |
| 20260509053032 | 43 | 185 | 0.9 | 3.5 | 0.00 | 0.09 | 0.00 | 75 | 1010.7 |
| 20260509051527 | 41 | 180 | 0.0 | 1.7 | 0.00 | 0.09 | 0.00 | 78 | 1010.9 |
| 20260509050035 | 41 | 180 | 0.0 | 2.6 | 0.00 | 0.09 | 0.00 | 80 | 1011.1 |
| 20260509044522 | 40 | 180 | 0.9 | 2.6 | 0.00 | 0.09 | 0.00 | 80 | 1011.3 |
| 20260509043021 | 40 | 180 | 0.0 | 1.7 | 0.00 | 0.09 | 0.00 | 79 | 1011.1 |
| 20260509041518 | 40 | 180 | 1.7 | 2.6 | 0.00 | 0.09 | 0.00 | 78 | 1011.1 |
| 20260509040015 | 40 | 180 | 0.0 | 0.0 | 0.00 | 0.09 | 0.00 | 76 | 1011.1 |
| 20260509034514 | 41 | 180 | 0.0 | 1.7 | 0.00 | 0.09 | 0.09 | 75 | 1011.2 |
| 20260509033015 | 41 | 180 | 0.9 | 2.6 | 0.00 | 0.09 | 0.09 | 74 | 1011.3 |
| 20260509031521 | 42 | 180 | 0.9 | 2.6 | 0.00 | 0.09 | 0.09 | 70 | 1011.1 |
| 20260509030021 | 43 | 180 | 0.0 | 0.0 | 0.00 | 0.09 | 0.09 | 67 | 1011.2 |
| 20260509024513 | 44 | 180 | 0.0 | 2.6 | 0.00 | 0.09 | 0.09 | 66 | 1011.4 |
| 20260509023021 | 45 | 180 | 0.0 | 1.7 | 0.00 | 0.09 | 0.09 | 66 | 1011.4 |
| 20260509021512 | 45 | 180 | 0.0 | 0.0 | 0.00 | 0.09 | 0.09 | 67 | 1011.6 |
| 20260509020016 | 46 | 180 | 0.0 | 0.0 | 0.00 | 0.09 | 0.09 | 64 | 1011.7 |
| 20260509014512 | 46 | 180 | 0.0 | 0.0 | 0.00 | 0.09 | 0.09 | 63 | 1011.5 |
| 20260509013013 | 45 | 180 | 0.0 | 1.7 | 0.00 | 0.09 | 0.09 | 65 | 1011.4 |
| 20260509011510 | 46 | 180 | 0.0 | 1.7 | 0.00 | 0.09 | 0.09 | 65 | 1011.1 |
| 20260509010011 | 46 | 180 | 0.0 | 3.5 | 0.00 | 0.09 | 0.09 | 64 | 1011.0 |
| 20260509004521 | 47 | 107 | 0.0 | 1.7 | 0.00 | 0.09 | 0.09 | 62 | 1010.7 |
| 20260509003009 | 49 | 107 | 0.0 | 2.6 | 0.00 | 0.09 | 0.09 | 59 | 1010.8 |
| 20260509001508 | 50 | 62 | 0.0 | 2.6 | 0.00 | 0.09 | 0.09 | 53 | 1010.7 |
| 20260509000007 | 51 | 62 | 0.0 | 1.7 | 0.00 | 0.09 | 0.09 | 53 | 1010.5 |
| 20260508234506 | 53 | 62 | 0.0 | 2.6 | 0.00 | 0.09 | 0.09 | 51 | 1010.3 |
| 20260508233007 | 53 | 62 | 0.0 | 2.6 | 0.00 | 0.09 | 0.09 | 49 | 1010.3 |
| 20260508231505 | 53 | 63 | 1.7 | 4.3 | 0.00 | 0.09 | 0.09 | 47 | 1010.3 |
| 20260508230005 | 53 | 87 | 1.7 | 7.8 | 0.00 | 0.09 | 0.09 | 46 | 1010.2 |
| 20260508224504 | 54 | 79 | 3.5 | 7.8 | 0.00 | 0.09 | 0.09 | 46 | 1010.3 |
| 20260508223004 | 55 | 93 | 4.3 | 8.7 | 0.00 | 0.09 | 0.09 | 45 | 1010.1 |
| 20260508221503 | 56 | 114 | 5.2 | 9.6 | 0.00 | 0.09 | 0.09 | 43 | 1010.1 |
| 20260508220001 | 56 | 63 | 3.5 | 7.0 | 0.00 | 0.09 | 0.09 | 40 | 1010.1 |
| 20260508214622 | 57 | 51 | 3.5 | 7.8 | 0.00 | 0.09 | 0.09 | 39 | 1010.0 |
| 20260508213058 | 56 | 296 | 3.5 | 7.0 | 0.00 | 0.09 | 0.09 | 41 | 1010.3 |
| 20260508211559 | 55 | 333 | 2.6 | 9.6 | 0.00 | 0.09 | 0.09 | 43 | 1010.4 |
| 20260508210055 | 55 | 63 | 3.5 | 8.7 | 0.00 | 0.09 | 0.09 | 40 | 1010.3 |
| 20260508204557 | 55 | 18 | 1.7 | 7.0 | 0.00 | 0.09 | 0.09 | 41 | 1010.3 |
| 20260508203053 | 55 | 331 | 4.3 | 9.6 | 0.00 | 0.09 | 0.09 | 41 | 1010.3 |
| 20260508201555 | 55 | 304 | 2.6 | 13.9 | 0.00 | 0.09 | 0.09 | 43 | 1010.5 |
| 20260508200052 | 56 | 320 | 7.8 | 12.2 | 0.00 | 0.09 | 0.09 | 42 | 1010.6 |
| 20260508194613 | 56 | 330 | 6.1 | 13.0 | 0.00 | 0.09 | 0.09 | 43 | 1011.0 |
| 20260508193045 | 54 | 312 | 8.7 | 14.8 | 0.00 | 0.09 | 0.09 | 47 | 1011.3 |
| 20260508191540 | 56 | 311 | 2.6 | 13.0 | 0.00 | 0.09 | 0.09 | 44 | 1011.3 |
| 20260508190038 | 55 | 321 | 5.2 | 12.2 | 0.00 | 0.09 | 0.09 | 46 | 1011.4 |
| 20260508184535 | 54 | 267 | 6.1 | 10.4 | 0.00 | 0.09 | 0.09 | 49 | 1011.5 |
| 20260508183032 | 54 | 301 | 7.0 | 13.0 | 0.00 | 0.09 | 0.09 | 50 | 1011.8 |
| 20260508181547 | 53 | 238 | 7.8 | 14.8 | 0.00 | 0.09 | 0.09 | 49 | 1011.7 |
| 20260508180027 | 52 | 317 | 6.1 | 14.8 | 0.00 | 0.09 | 0.09 | 58 | 1011.9 |
| 20260508174523 | 51 | 215 | 6.1 | 8.7 | 0.00 | 0.09 | 0.09 | 63 | 1012.1 |
| 20260508173033 | 49 | 198 | 4.3 | 10.4 | 0.00 | 0.09 | 0.09 | 66 | 1012.2 |
| 20260508171523 | 48 | 221 | 7.0 | 14.8 | 0.00 | 0.09 | 0.09 | 70 | 1012.3 |
| 20260508170013 | 46 | 146 | 7.0 | 11.3 | 0.00 | 0.09 | 0.09 | 70 | 1012.7 |
| 20260508164516 | 45 | 115 | 7.0 | 10.4 | 0.00 | 0.09 | 0.09 | 71 | 1012.6 |
| 20260508163018 | 45 | 69 | 5.2 | 9.6 | 0.00 | 0.09 | 0.09 | 72 | 1012.8 |
| 20260508161520 | 45 | 175 | 2.6 | 6.1 | 0.00 | 0.09 | 0.09 | 71 | 1012.9 |
| 20260508160009 | 45 | 196 | 1.7 | 6.1 | 0.00 | 0.09 | 0.09 | 70 | 1012.9 |
| 20260508154506 | 44 | 234 | 0.9 | 7.0 | 0.00 | 0.09 | 0.09 | 76 | 1013.0 |
| 20260508153003 | 42 | 243 | 1.7 | 4.3 | 0.00 | 0.09 | 0.09 | 77 | 1013.0 |
| 20260508151608 | 42 | 232 | 0.9 | 3.5 | 0.00 | 0.09 | 0.09 | 79 | 1013.0 |
| 20260508150100 | 42 | 234 | 1.7 | 4.3 | 0.00 | 0.09 | 0.09 | 79 | 1013.0 |
| 20260508144559 | 42 | 232 | 0.0 | 4.3 | 0.00 | 0.09 | 0.09 | 81 | 1013.1 |
| 20260508143059 | 41 | 229 | 0.0 | 7.0 | 0.01 | 0.09 | 0.09 | 82 | 1013.0 |
| 20260508141557 | 40 | 221 | 1.7 | 5.2 | 0.01 | 0.09 | 0.09 | 84 | 1012.8 |
| 20260508140053 | 39 | 212 | 1.7 | 4.3 | 0.01 | 0.09 | 0.09 | 85 | 1012.9 |
| 20260508134556 | 38 | 215 | 0.9 | 5.2 | 0.01 | 0.09 | 0.09 | 85 | 1013.0 |
| 20260508133102 | 38 | 194 | 1.7 | 4.3 | 0.01 | 0.08 | 0.08 | 84 | 1013.0 |
| 20260508131548 | 38 | 200 | 2.6 | 5.2 | 0.03 | 0.08 | 0.08 | 84 | 1012.8 |
| 20260508130046 | 38 | 228 | 4.3 | 9.6 | 0.07 | 0.08 | 0.08 | 83 | 1012.9 |
| 20260508124543 | 38 | 245 | 3.5 | 7.8 | 0.08 | 0.08 | 0.08 | 83 | 1012.5 |
| 20260508123053 | 38 | 242 | 3.5 | 10.4 | 0.07 | 0.07 | 0.07 | 81 | 1012.4 |
| 20260508121550 | 39 | 283 | 7.0 | 9.6 | 0.05 | 0.05 | 0.05 | 79 | 1012.4 |
| 20260508120036 | 40 | 227 | 6.1 | 10.4 | 0.01 | 0.01 | 0.01 | 79 | 1012.1 |
| 20260508114534 | 40 | 224 | 1.7 | 3.5 | 0.00 | 0.00 | 0.00 | 82 | 1011.5 |
| 20260508113033 | 40 | 224 | 0.0 | 1.7 | 0.00 | 0.00 | 0.00 | 82 | 1011.0 |
| 20260508111531 | 40 | 224 | 0.0 | 3.5 | 0.00 | 0.00 | 0.00 | 82 | 1011.3 |
| 20260508110030 | 40 | 224 | 0.0 | 2.6 | 0.00 | 0.00 | 0.00 | 81 | 1011.3 |
| 20260508104529 | 40 | 224 | 0.0 | 1.7 | 0.00 | 0.00 | 0.00 | 82 | 1011.4 |
| 20260508103030 | 39 | 224 | 1.7 | 2.6 | 0.00 | 0.00 | 0.00 | 84 | 1011.3 |
| 20260508101525 | 39 | 224 | 0.9 | 2.6 | 0.00 | 0.00 | 0.00 | 84 | 1011.4 |
| 20260508100026 | 39 | 224 | 1.7 | 4.3 | 0.00 | 0.00 | 0.00 | 84 | 1011.5 |
| 20260508094523 | 38 | 224 | 2.6 | 5.2 | 0.00 | 0.00 | 0.00 | 84 | 1011.6 |
| 20260508093025 | 38 | 213 | 2.6 | 5.2 | 0.00 | 0.00 | 0.00 | 85 | 1011.7 |
| 20260508091526 | 37 | 220 | 1.7 | 3.5 | 0.00 | 0.00 | 0.00 | 85 | 1011.8 |